Zurück zum Katalog

STARLINK-31064

AktivKommunikationVLEO
NORAD 58631·PAYLOAD·🇺🇸 United States

Gestartet Dec 23, 2023 von Cape Canaveral Space Force Station

Loading…

Nächste Überflüge (nächste 24 Stunden)

TLE

AktuellSource: CelesTrak SupGP

Epoche: Sep 15, 2026, 02:04 UTC

1 58631C 23203P   26258.08659722  .00007010  00000+0  25397-3 0  2589
2 58631  43.0026  81.2745 0001466 272.2181  65.2253 15.27565255    14

Verfolge STARLINK-31064 in Echtzeit mit AllMySat

Download on the App Store